CZ-8A R/B

基本信息
目录编号:
66004
目录名称:
CZ-8A R/B
国际标识:
2025-231K
轨道中心:
EARTH
物体状态:
在轨
发射日期:
2025-10-16 UTC
国别:
中国 (CN)
轨道信息
数据来源: 国际轨道数据
星历时间: 2026-09-05T19:27:40+0800
半长轴: 7169.274km
偏心率: 0.0116744
轨道倾角: 50.003°
近地点辐角: 146.858°
升交点赤经: 57.709°
平近点角: 213.971°
近地点: 707.44km
远地点: 874.834km
周期: 100.687分钟
每日圈数: 14.301779
详细信息
发射场:
WSC
轨道高度:
LEO
数据来源:
AOE Working Group
参考系:
TEME
时间系统:
UTC
历元类型:
SGP4
2D轨道图
3D轨道图
轨道高度分析图
轨道倾角分析图
轨道综合分析图
查看轨道综合分析图